Location: Pedimozza
(42.0500°N, 9.3500°E)
Time: 02:15:27
(UTC+00:00)

Cosmos 1709 Rocket - Pass Details

Date: 19 August 2019
Orbit: 948 x 1002 km, 82.9° (Epoch: 15 September)

Event Time Altitude Azimuth Distance (km) Brightness Sun altitude
Rises 21:10:08 0° 348° (NNW) 3,629 8.0 -27.0°
Reaches altitude 10° 21:12:39 10° 346° (NNW) 2,682 7.1 -27.3°
Maximum altitude 21:18:40 62° 267° (W) 1,072 4.2 -27.9°
Enters shadow 21:19:55 51° 220° (SW) 1,189 4.3 -28.1°
